This is the latest recevied weather packets stored in our database for station/object OE6PLD-13. If no packets are shown the sender has not sent any weather packets the latest 10 day(s).
| Time | Temp. | Humidity | Pressure | Rain* | Wind** | Luminosity | Snow |
|---|---|---|---|---|---|---|---|
| 1778149083 | 20.56° C | 59% | 1016.9 hPa | 0.76 mm | - | 479 W/m² | - |
| 1778148900 | 20.56° C | 60% | 1016.8 hPa | 0.76 mm | - | 522 W/m² | - |
| 1778148717 | 20.56° C | 60% | 1017 hPa | 0.76 mm | - | 387 W/m² | - |
| 1778148533 | 20.56° C | 60% | 1017 hPa | 0.76 mm | - | 512 W/m² | - |
| 1778148350 | 20° C | 60% | 1016.8 hPa | 0.76 mm | - | 592 W/m² | - |
| 1778148167 | 20° C | 61% | 1017 hPa | 0.76 mm | - | 688 W/m² | - |
| 1778147983 | 20° C | 61% | 1017.1 hPa | 0.76 mm | - | 678 W/m² | - |
| 1778147800 | 19.44° C | 62% | 1016.8 hPa | 0.76 mm | - | 635 W/m² | - |
| 1778147616 | 19.44° C | 63% | 1017.2 hPa | 0.76 mm | - | 444 W/m² | - |
| 1778147432 | 19.44° C | 64% | 1016.9 hPa | 0.76 mm | - | 488 W/m² | - |
| 1778147249 | 19.44° C | 64% | 1017.1 hPa | 0.76 mm | - | 288 W/m² | - |
| 1778147066 | 20° C | 63% | 1016.9 hPa | 0.76 mm | - | 295 W/m² | - |
| 1778146882 | 20° C | 63% | 1017.1 hPa | 0.76 mm | - | 504 W/m² | - |
| 1778146699 | 20° C | 63% | 1017.2 hPa | 0.76 mm | - | 360 W/m² | - |
| 1778146516 | 19.44° C | 65% | 1017 hPa | 0.76 mm | - | 659 W/m² | - |
| 1778146332 | 19.44° C | 65% | 1017.3 hPa | 0.76 mm | - | 471 W/m² | - |
| 1778146149 | 18.89° C | 67% | 1017 hPa | 0.76 mm | - | 415 W/m² | - |
| 1778145965 | 20° C | 65% | 1017.1 hPa | 0.76 mm | - | 309 W/m² | - |
| 1778145782 | 20° C | 63% | 1017 hPa | 0.76 mm | - | 445 W/m² | - |
| 1778145599 | 20° C | 64% | 1017 hPa | 0.76 mm | - | 602 W/m² | - |
| 1778145415 | 20° C | 64% | 1017.2 hPa | 0.76 mm | - | 588 W/m² | - |
| 1778145232 | 19.44° C | 65% | 1017.2 hPa | 0.76 mm | - | 604 W/m² | - |
| 1778145049 | 19.44° C | 65% | 1017.1 hPa | 0.76 mm | - | 619 W/m² | - |
| 1778144865 | 19.44° C | 65% | 1016.9 hPa | 0.76 mm | - | 652 W/m² | - |
| 1778144682 | 18.89° C | 66% | 1017 hPa | 0.76 mm | - | 622 W/m² | - |
* Rain latest hour (hover to see other rain measurements)
** Current wind speed in m/s (hover to see current wind gust speed)